DateTimeUTC,F1_A11,F1_S11,BsB_S11,BsG_S11,BsR_S11,BbsB_S11,BbsG_S11,BbsR_S11,BaB_A11,BaG_A11,BaR_A11,Tu_S11,T_S11,Uu_S11,U_S11,P_S11,T1_A11
2021-08-01T22:00:00Z,00000200,20000000,,,,,,,-000.01,-000.47,0000.21,19.9,26.7,05.9,03.9,0675.9,31.1
2021-08-01T22:01:00Z,00000200,20000000,,,,,,,-000.02,0000.06,0000.03,19.8,26.7,05.6,03.7,0675.9,31.1
2021-08-01T22:02:00Z,00000200,20000000,,,,,,,-000.44,0000.00,-000.20,19.8,26.7,05.6,03.7,0675.9,31.1
2021-08-01T22:03:00Z,00000200,60000000,,,,,,,0000.31,0000.35,0000.56,19.8,26.7,05.6,03.7,0675.9,31.1
2021-08-01T22:04:00Z,00000200,40000000,0003.18,0002.28,0001.24,-000.34,0000.45,0000.15,0001.06,0000.72,0000.20,19.9,26.5,05.7,03.8,0676.8,31.1
2021-08-01T22:05:00Z,00000200,00000000,0003.20,0002.06,0001.42,0000.30,0000.22,0000.44,0000.96,0000.84,0000.73,20.0,26.5,05.6,03.8,0676.8,31.1
2021-08-01T22:06:00Z,00000200,00000000,0002.78,0002.29,0001.47,0000.39,0000.09,0000.34,0000.85,0000.80,0000.43,20.0,26.5,05.7,03.9,0676.8,31.1
2021-08-01T22:07:00Z,00000200,00000000,0002.25,0002.21,0001.63,0000.75,0000.19,0000.31,0000.88,0000.43,0000.76,20.0,26.4,05.8,03.9,0676.8,31.1
2021-08-01T22:08:00Z,00000200,00000000,0003.24,0002.04,0001.17,0000.35,0000.07,0000.11,0000.36,0000.83,0000.36,20.0,26.4,05.7,03.8,0676.8,31.1
2021-08-01T22:09:00Z,00000200,00000000,0002.43,0001.91,0001.41,0000.29,0000.31,0000.27,0000.65,0000.81,0000.12,20.0,26.4,05.7,03.8,0676.8,31.1
2021-08-01T22:10:00Z,00000200,00000000,0003.25,0002.27,0001.28,0000.42,0000.11,0000.24,0000.54,0000.41,0000.80,20.0,26.4,05.7,03.9,0676.8,31.1
2021-08-01T22:11:00Z,00000200,00000000,0002.77,0002.32,0001.33,0000.31,-000.02,0000.22,0001.22,0000.88,0000.28,19.9,26.4,05.7,03.9,0676.8,31.1
2021-08-01T22:12:00Z,00000200,00000000,0003.09,0002.29,0001.41,0000.06,0000.24,0000.34,0000.49,0000.59,0000.64,19.9,26.4,05.7,03.8,0676.8,31.1
2021-08-01T22:13:00Z,00000200,00000000,0003.14,0002.15,0001.44,0000.11,0000.10,0000.65,0000.82,0000.85,0000.54,19.9,26.4,05.8,03.9,0676.8,31.1
2021-08-01T22:14:00Z,00000200,00000000,0002.90,0002.48,0001.47,0000.62,0000.15,0000.47,0000.67,0000.26,0000.25,19.9,26.4,05.7,03.8,0676.7,31.1
2021-08-01T22:15:00Z,00000200,00000000,0003.56,0002.15,0001.06,0000.33,0000.07,0000.23,0000.72,0000.79,0000.80,19.9,26.3,05.6,03.8,0676.8,31.1
2021-08-01T22:16:00Z,00000200,00000000,0002.75,0002.40,0001.25,-000.05,0000.12,0000.60,0000.53,0000.50,0000.38,19.9,26.3,05.6,03.8,0676.8,31.1
2021-08-01T22:17:00Z,00000200,00000000,0002.85,0002.37,0001.42,0000.17,0000.20,0000.31,0000.71,0000.50,0000.46,19.9,26.3,05.6,03.8,0676.8,31.1
2021-08-01T22:18:00Z,00000200,00000000,0002.69,0002.22,0001.35,0000.28,0000.30,0000.10,0000.60,0000.78,0000.17,19.9,26.3,05.6,03.8,0676.8,31.1
2021-08-01T22:19:00Z,00000200,00000000,0002.80,0002.09,0001.30,0000.10,0000.05,0000.33,0000.73,0000.56,0000.54,19.9,26.3,05.5,03.7,0676.8,31.1
2021-08-01T22:20:00Z,00000200,00000000,0002.80,0002.50,0001.49,0000.38,0000.25,0000.73,0000.84,0000.60,0000.34,19.9,26.3,05.4,03.6,0676.8,31.1
2021-08-01T22:21:00Z,00000200,00000000,0002.90,0002.32,0001.26,0000.45,0000.24,0000.04,0000.39,0000.66,0000.55,19.9,26.3,05.4,03.7,0676.7,31.1
2021-08-01T22:22:00Z,00000200,00000000,0003.12,0002.37,0001.10,0000.33,0000.34,0000.36,0000.96,0000.44,0000.47,19.8,26.3,05.4,03.7,0676.7,31.1
2021-08-01T22:23:00Z,00000200,00000000,0003.16,0001.82,0001.52,0000.75,0000.38,0000.42,0001.06,0000.95,0000.82,19.8,26.3,05.4,03.7,0676.8,31.1
2021-08-01T22:24:00Z,00000200,00000000,0003.10,0002.20,0001.40,0000.73,0000.37,0000.23,0000.57,0000.71,0000.29,19.8,26.3,05.4,03.6,0676.7,31.1
2021-08-01T22:25:00Z,00000200,00000000,0002.85,0001.79,0001.24,0000.41,0000.34,0000.35,0000.62,0000.54,0000.68,19.8,26.3,05.4,03.7,0676.7,31.1
2021-08-01T22:26:00Z,00000200,00000000,0002.11,0002.46,0000.68,0000.96,0000.21,0000.23,0000.54,0000.30,0000.19,19.8,26.2,05.4,03.6,0676.7,31.1
2021-08-01T22:27:00Z,00000200,00000000,0003.04,0002.23,0001.62,-000.16,0000.19,0000.56,0000.81,0001.04,0000.48,19.8,26.2,05.5,03.7,0676.7,31.1
2021-08-01T22:28:00Z,00000200,00000000,0003.49,0002.00,0001.31,0000.23,0000.04,0000.43,0000.69,0000.49,0000.45,19.8,26.2,05.5,03.7,0676.7,31.1
2021-08-01T22:29:00Z,00000200,00000000,0003.42,0002.13,0001.40,0000.25,-000.01,0000.58,0000.63,0000.37,0000.33,19.8,26.2,05.5,03.7,0676.7,31.1
2021-08-01T22:30:00Z,00000200,00000000,0002.81,0002.05,0001.44,0000.19,0000.26,0000.47,0000.83,0000.93,0000.71,19.8,26.2,05.5,03.7,0676.7,31.1
2021-08-01T22:31:00Z,00000200,00000000,0003.09,0002.08,0001.06,0000.15,0000.22,0000.22,0000.71,0000.68,0000.78,19.8,26.2,05.4,03.7,0676.7,31.1
2021-08-01T22:32:00Z,00000200,00000000,0002.56,0002.19,0001.47,0000.82,0000.10,0000.23,0000.40,0000.47,0000.06,19.8,26.2,05.4,03.7,0676.7,31.1
2021-08-01T22:33:00Z,00000200,00000000,0002.14,0002.09,0001.25,0000.85,0000.38,0000.52,0000.68,0000.75,-000.05,19.7,26.2,05.3,03.6,0676.7,31.1
2021-08-01T22:34:00Z,00000200,00000000,0003.33,0002.12,0001.41,0000.91,0000.16,0000.42,0000.68,0000.57,0000.81,19.7,26.2,05.3,03.6,0676.8,31.1
2021-08-01T22:35:00Z,00000200,00000000,0002.28,0002.35,0001.29,0000.34,0000.23,0000.30,0000.76,0000.59,0000.71,19.7,26.2,05.2,03.5,0676.8,31.1
2021-08-01T22:36:00Z,00000200,00000000,0003.02,0001.98,0001.58,0000.16,0000.04,0000.60,0000.60,0000.61,0000.07,19.7,26.2,05.2,03.5,0676.8,31.1
2021-08-01T22:37:00Z,00000200,00000000,0002.71,0001.83,0001.18,-000.18,0000.26,0000.29,0000.67,0000.51,0000.78,19.7,26.2,05.2,03.5,0676.7,31.1
2021-08-01T22:38:00Z,00000200,00010000,0002.97,0002.13,0001.38,0000.99,0000.62,0000.48,0000.43,0000.42,0000.32,19.7,26.1,05.2,03.6,0676.8,31.1
2021-08-01T22:39:00Z,00000200,00000000,0002.32,0001.71,0001.47,0000.99,0000.15,0000.31,0000.83,0000.77,0000.52,19.7,26.1,05.2,03.5,0676.7,31.1
2021-08-01T22:40:00Z,00000200,00000000,0002.46,0001.71,0000.86,0000.96,0000.05,0000.36,0000.65,0000.86,0000.21,19.7,26.1,05.2,03.5,0676.7,31.1
2021-08-01T22:41:00Z,00000200,00000000,0002.49,0001.69,0001.25,0000.52,0000.30,0000.52,0000.75,0000.21,0000.36,19.7,26.1,05.2,03.5,0676.7,31.1
2021-08-01T22:42:00Z,00000200,00000000,0003.31,0001.99,0000.99,0000.77,0000.07,0000.08,0000.43,0000.62,0000.51,19.7,26.1,05.2,03.5,0676.8,31.1
2021-08-01T22:43:00Z,00000200,00000000,0001.74,0002.15,0000.85,0000.25,0000.19,0000.12,0000.86,0000.56,0000.38,19.7,26.1,05.0,03.4,0676.8,31.1
2021-08-01T22:44:00Z,00000200,00000000,0002.87,0002.07,0000.82,0000.75,0000.29,0000.30,0000.38,0000.52,0000.48,19.7,26.1,05.2,03.5,0676.7,31.1
2021-08-01T22:45:00Z,00000200,00000000,0001.75,0001.80,0000.67,0000.11,0000.46,-000.18,0000.77,0000.82,0000.46,19.6,26.1,05.1,03.4,0676.7,31.1
2021-08-01T22:46:00Z,00000200,00000000,0002.78,0001.75,0001.18,0000.35,0000.23,0000.33,0000.41,0000.06,0000.11,19.6,26.1,05.1,03.5,0676.7,31.1
2021-08-01T22:47:00Z,00000200,00000000,0002.27,0001.88,0001.51,-000.01,0000.19,0000.16,0000.84,0000.63,0000.63,19.6,26.1,05.1,03.4,0676.7,31.1
2021-08-01T22:48:00Z,00000200,00000000,0002.34,0002.08,0001.24,0000.36,0000.17,0000.34,0000.57,0001.00,0000.76,19.6,26.1,05.1,03.4,0676.7,31.1
2021-08-01T22:49:00Z,00000200,00000000,0001.94,0001.42,0001.11,0000.24,0000.07,0000.39,0000.56,0000.46,0000.11,19.6,26.1,05.1,03.4,0676.7,31.1
2021-08-01T22:50:00Z,00000200,00000000,0002.45,0001.83,0001.34,0000.63,0000.09,0000.25,0000.56,0000.24,0000.21,19.6,26.0,05.1,03.4,0676.7,31.1
2021-08-01T22:51:00Z,00000200,00000000,0001.82,0001.93,0001.12,0000.58,0000.21,0000.13,0000.74,0000.88,0000.57,19.6,26.1,05.1,03.4,0676.7,31.1
2021-08-01T22:52:00Z,00000200,00000000,0002.33,0002.06,0000.80,0000.54,0000.30,0000.13,0000.64,0000.53,0000.85,19.6,26.0,05.1,03.4,0676.7,31.1
2021-08-01T22:53:00Z,00000200,00000000,0002.00,0001.74,0000.90,0000.58,0000.32,0000.08,0000.42,0000.41,0000.05,19.6,26.0,05.1,03.5,0676.7,31.1
2021-08-01T22:54:00Z,00000200,00000000,0002.43,0001.80,0000.60,0000.23,-000.04,0000.48,0000.69,0000.56,0000.75,19.6,26.0,05.1,03.5,0676.7,31.1
2021-08-01T22:55:00Z,00000200,00000000,0001.84,0001.55,0001.30,0000.62,0000.32,0000.02,0001.00,0000.72,0000.22,19.6,26.0,05.2,03.5,0676.7,31.1
2021-08-01T22:56:00Z,00000200,00000000,0002.35,0001.88,0001.16,0000.48,0000.02,0000.38,0000.54,0000.35,0000.45,19.6,26.0,05.1,03.4,0676.7,31.1
2021-08-01T22:57:00Z,00000200,40000000,,,,,,,0000.02,0000.84,0000.57,19.6,26.0,05.5,03.7,0676.6,31.1
2021-08-01T22:58:00Z,00000200,60000000,,,,,,,0000.25,-000.12,0000.51,19.3,26.1,05.3,03.5,0675.7,31.1
2021-08-01T22:59:00Z,00000200,20000000,,,,,,,-000.15,-000.23,-000.88,19.3,26.2,05.2,03.4,0675.7,31.1
